Wind_Gust
27 27 27 27 26 26 26 26 26 26 26 27 26 25 25 23 23 22 21 20 20 21 21 21 19 18 17 16 15 14 14 18 19 20 21 29 16 16 20 15 17 16 13 13 16 17 17 16 17 18 19 18 18 22 20 17 18 11 18 15 15 14 20 15 23 15 17 17 7 18 13 17 11 11 11 15 11 14 18 20 24 25 25 19 18 23 22 23
28 27 27 28 28 27 27 26 27 26 27 27 27 27 27 26 23 23 22 21 21 21 21 20 20 17 16 14 14 11 15 18 21 23 31 26 17 19 15 16 15 16 13 16 19 18 18 17 18 15 19 21 14 15 14 20 13 16 18 12 16 15 18 12 16 9 11 18 18 17 16 18 17 14 14 16 9 16 17 23 16 16 16 18 18 20 23 22
27 29 27 28 28 28 27 27 27 26 26 27 27 28 27 27 25 24 23 22 21 21 21 20 18 17 15 13 12 9 13 19 23 27 32 23 28 17 16 16 15 17 19 19 18 21 23 19 16 15 18 21 15 18 14 21 19 17 16 16 16 16 14 14 16 20 22 12 19 16 13 13 17 18 14 18 12 11 17 20 15 20 16 17 18 17 19 20
28 28 28 28 29 28 27 28 28 27 27 27 27 27 27 26 26 25 23 23 21 20 20 20 17 16 14 11 9 14 16 21 24 16 18 22 20 21 17 15 15 19 17 19 20 23 22 22 24 20 23 23 19 15 20 21 22 22 17 22 19 23 19 17 14 13 14 17 17 15 14 15 18 20 20 18 17 15 14 20 23 22 23 20 21 19 19 19
29 28 28 28 29 28 28 28 29 28 27 27 27 27 27 25 25 25 23 22 22 21 20 19 17 14 12 10 9 14 15 21 15 20 15 19 21 21 18 16 15 18 18 17 19 20 22 22 22 19 20 29 26 16 15 16 22 17 17 20 19 14 21 22 20 12 17 8 11 18 18 20 16 14 19 16 21 15 20 20 28 25 24 24 21 20 18 19
29 29 29 28 29 29 29 29 29 28 28 27 27 27 26 25 24 23 23 23 23 22 19 18 16 13 10 4 15 14 14 12 17 17 15 15 19 19 17 15 14 16 17 20 20 18 19 17 18 18 22 19 21 22 21 20 15 18 17 22 23 21 21 14 15 15 16 19 18 16 17 15 16 18 17 16 15 17 20 24 25 26 27 26 24 23 19 20
29 28 29 29 30 30 30 30 30 28 29 28 27 26 25 26 25 24 24 23 23 22 19 16 14 13 9 4 18 15 20 32 17 18 18 16 16 17 15 12 9 14 18 21 19 22 15 19 17 17 20 22 22 22 15 16 14 18 23 17 17 16 16 13 16 13 18 21 21 19 20 18 16 19 13 17 14 18 15 24 25 27 24 24 25 20 24 24
29 30 30 29 31 30 31 31 30 29 29 29 27 26 26 26 25 26 25 23 21 20 17 15 11 10 7 14 14 18 21 28 23 22 18 17 18 18 15 15 17 16 18 21 19 18 18 19 19 21 25 19 16 24 13 11 15 19 21 19 22 18 15 18 19 19 18 18 20 22 20 17 17 20 16 19 17 17 25 26 24 24 25 22 21 21 20 21
29 30 30 30 30 31 32 31 32 31 30 29 29 28 26 25 25 25 25 24 21 19 16 13 10 7 7 13 18 21 23 21 26 23 21 21 22 19 19 20 20 19 20 21 21 21 18 18 20 12 20 21 19 18 17 17 23 22 18 19 20 20 19 19 20 20 21 23 20 18 18 17 20 20 23 16 18 18 21 21 21 23 26 24 22 23 23 24
30 30 31 30 31 32 31 32 32 33 32 31 30 29 28 25 24 24 24 24 21 17 15 11 8 9 10 16 17 21 17 19 22 23 24 23 23 21 22 20 20 22 22 21 20 20 20 21 20 21 16 19 17 19 18 20 26 23 21 17 18 20 23 21 23 21 19 19 13 19 17 19 18 20 19 10 16 20 24 24 25 29 25 23 20 21 21 25
31 30 31 32 32 32 32 32 32 33 33 34 32 31 27 26 25 23 23 23 20 18 14 8 5 9 15 18 21 22 18 21 19 22 22 21 23 24 23 23 20 24 22 20 21 19 20 20 19 17 19 22 22 19 16 20 24 21 24 24 24 24 24 23 24 27 25 26 17 17 16 17 20 17 20 18 21 25 26 21 22 23 24 24 22 21 17 20
31 31 31 33 33 33 33 33 33 33 33 34 33 30 29 28 27 23 22 21 20 14 10 7 11 15 17 20 23 29 13 16 23 20 21 21 23 25 21 22 20 21 21 22 20 18 18 20 14 17 25 19 27 22 21 22 23 20 21 26 24 26 34 23 27 23 20 28 17 9 16 23 25 26 19 20 15 25 27 27 30 26 26 24 21 19 18 19
30 32 32 34 33 34 34 34 34 34 33 33 33 34 31 30 27 23 22 20 12 9 5 7 9 16 14 19 28 35 27 19 20 22 17 19 18 19 20 20 22 21 22 21 21 19 20 21 18 20 20 23 23 30 27 30 24 22 21 24 26 27 31 30 28 25 23 24 19 14 23 22 20 20 19 21 18 20 22 26 28 25 23 23 20 20 17 15
31 33 32 33 33 33 34 34 34 35 34 32 35 34 31 32 29 23 22 18 16 12 9 10 14 15 15 22 24 21 13 15 17 21 20 19 19 21 19 20 21 22 19 21 22 21 20 20 18 20 22 23 27 21 27 27 23 29 24 22 25 26 31 33 29 29 29 26 17 19 22 22 19 21 19 16 21 26 24 24 21 26 26 24 22 21 20 21
31 32 33 33 33 33 34 35 35 33 34 35 35 35 32 33 30 23 20 15 10 10 11 10 14 11 16 26 26 26 26 22 17 23 22 22 20 20 20 20 21 20 19 20 23 18 13 13 16 19 24 20 25 26 30 28 25 25 27 26 25 29 30 32 33 23 32 23 20 18 20 25 21 21 17 18 19 24 25 23 24 24 26 26 24 22 19 19
32 32 34 33 33 34 34 34 33 34 35 37 36 38 35 30 25 18 15 12 10 15 13 12 17 20 21 30 19 12 13 20 23 23 21 21 21 21 18 18 16 18 19 21 18 19 16 16 23 21 25 22 25 26 25 26 25 27 27 22 27 23 29 29 24 21 28 19 18 25 23 19 20 21 20 13 22 24 23 23 24 29 30 28 24 22 20 19
33 33 33 33 33 34 35 34 35 34 36 37 38 37 35 31 19 14 11 12 11 13 15 16 12 22 15 16 15 16 23 23 17 18 20 21 20 21 18 18 21 19 18 19 17 18 20 20 17 25 23 27 24 24 24 22 23 25 22 23 19 19 18 21 19 21 23 22 16 22 21 17 18 18 20 23 19 26 25 19 27 27 25 25 24 22 21 21
32 33 34 34 34 34 34 37 36 34 36 37 37 34 41 35 12 14 11 10 16 17 18 21 20 18 34 34 26 22 18 22 19 19 21 23 21 20 20 24 16 17 18 20 21 24 19 27 21 26 21 22 24 23 24 24 22 20 20 21 24 21 23 25 24 17 18 18 20 12 16 19 19 22 24 25 23 18 17 18 23 25 22 24 26 23 22 22
32 33 34 34 34 34 35 36 38 35 33 38 36 32 15 9 11 14 16 15 13 12 12 19 19 20 12 16 17 23 23 15 19 13 21 20 21 21 21 19 16 17 21 21 21 23 23 24 22 23 26 23 24 25 26 25 25 27 25 26 26 26 25 27 24 24 22 24 26 17 16 18 21 24 24 22 21 22 17 21 19 18 25 27 27 22 21 21
32 33 33 35 35 34 35 35 36 36 33 29 33 34 15 24 18 14 13 17 22 22 25 21 24 23 25 24 25 15 21 18 19 16 16 20 20 20 23 21 19 21 23 24 20 25 19 24 23 24 24 24 24 25 25 26 26 27 27 27 26 25 25 22 23 24 21 26 24 24 21 17 19 19 22 23 16 23 23 20 16 19 27 25 23 23 24 23
34 34 35 35 36 36 33 34 37 38 33 26 25 23 21 23 22 24 31 29 26 25 27 28 29 28 32 23 24 17 17 19 19 17 19 20 20 18 25 21 22 25 25 22 26 16 27 26 25 24 25 26 25 24 25 26 26 27 24 22 27 24 27 23 24 20 22 24 24 26 27 24 23 23 24 24 23 19 18 19 16 21 27 28 27 24 24 27
34 34 35 35 35 37 35 35 37 35 36 23 19 22 16 16 11 16 20 31 24 25 27 31 29 32 28 28 24 22 19 24 22 17 19 19 22 24 18 24 23 26 20 23 23 25 24 29 25 25 25 25 25 24 25 27 27 23 23 23 25 26 25 24 26 24 25 23 24 25 27 23 23 23 20 20 22 20 19 20 25 24 25 24 24 24 24 21
34 35 35 36 35 37 38 39 37 36 24 21 19 17 17 15 13 14 16 29 39 29 26 26 25 26 27 25 27 20 23 24 26 19 25 23 21 26 18 24 23 23 25 22 25 21 24 23 26 27 26 25 25 25 24 24 21 23 23 24 26 24 25 25 20 22 23 30 26 20 19 22 22 21 22 23 26 23 17 19 25 23 25 24 27 27 27 27
34 35 36 36 36 37 41 38 39 23 18 21 14 18 13 15 15 17 21 22 27 30 24 23 24 20 22 22 24 23 20 26 24 23 21 29 25 20 27 22 22 24 27 24 25 27 26 22 24 26 28 29 30 26 25 22 23 22 24 26 28 24 25 25 23 26 29 28 23 23 22 23 23 26 24 19 15 20 19 23 21 15 28 32 28 27 28 30
35 35 36 37 37 38 42 37 16 21 23 24 14 17 17 16 15 16 21 23 25 27 17 20 17 18 17 15 16 19 16 21 22 21 25 27 25 22 24 24 26 27 24 23 25 29 29 27 26 28 29 31 30 25 25 24 25 24 22 24 23 25 26 25 25 25 26 27 23 21 31 27 18 22 17 15 19 22 21 21 19 15 17 13 17 22 19 27
34 35 35 36 37 34 44 17 15 30 29 15 20 20 19 17 16 16 15 19 21 19 15 18 16 15 13 17 12 19 15 27 19 23 23 31 22 25 21 28 26 25 21 23 28 31 25 23 26 28 26 27 28 29 22 20 24 22 25 22 25 26 26 27 26 23 21 23 19 21 28 28 15 22 18 23 18 22 18 19 19 20 19 16 20 16 20 28
34 34 34 33 34 29 27 16 25 29 19 16 21 20 18 17 13 15 16 15 18 21 13 24 17 17 14 13 19 12 17 16 18 15 20 27 26 22 25 23 23 22 24 24 25 29 21 23 25 26 28 27 25 26 16 21 26 30 20 24 24 25 26 22 22 21 26 22 26 27 30 29 26 23 27 26 18 19 19 19 19 26 32 33 23 20 18 26
35 34 33 32 34 21 18 26 25 22 18 19 22 20 19 17 18 12 13 14 15 12 15 16 13 16 13 17 17 22 11 11 14 21 14 24 18 20 23 22 25 22 20 22 27 17 22 29 25 26 24 28 27 22 20 22 32 29 22 24 22 25 24 26 28 26 25 25 26 24 22 30 24 20 15 12 15 15 19 16 19 25 25 25 24 36 26 24
33 34 33 31 33 39 21 19 19 21 20 22 21 22 21 16 15 14 12 11 13 26 22 13 11 12 13 11 16 17 21 20 20 20 16 19 16 18 24 23 24 24 27 28 30 24 25 24 27 27 27 25 21 21 22 23 29 22 23 21 24 24 25 24 27 25 25 26 24 21 22 31 25 14 17 14 15 16 16 19 19 16 26 29 27 30 30 19
33 32 33 27 30 21 9 16 22 23 23 21 21 22 21 17 15 14 10 14 20 14 11 15 14 15 13 17 19 19 21 20 16 22 14 18 17 18 26 18 19 18 24 27 33 31 32 23 25 30 24 22 19 21 24 25 25 23 22 24 28 27 28 26 28 30 30 25 25 22 25 28 32 18 18 18 15 15 12 19 20 24 30 29 27 29 30 25
36 34 30 22 22 21 22 20 12 19 20 21 22 22 16 13 11 14 9 14 18 19 18 20 18 17 16 16 21 19 22 20 23 23 17 19 19 18 15 23 22 23 23 23 28 28 29 28 30 27 20 27 22 30 25 26 24 22 28 26 26 27 24 25 25 23 26 27 21 24 25 21 27 12 12 21 24 25 19 22 26 25 26 27 23 24 28 28
36 36 33 28 24 21 15 18 25 23 22 21 20 17 14 11 17 14 16 14 26 16 16 19 15 23 17 16 19 21 26 23 18 22 20 20 20 22 24 22 20 23 24 20 23 20 27 28 23 25 20 24 23 22 22 23 24 27 26 25 23 25 23 23 22 19 21 26 21 20 22 18 13 13 20 13 19 25 25 22 24 23 24 20 21 21 23 21
37 37 36 27 17 16 21 24 22 20 18 19 18 13 11 12 11 15 24 17 15 13 15 17 27 27 18 15 22 23 18 24 12 19 17 21 24 21 26 29 21 29 23 12 19 18 20 19 18 19 19 17 23 28 19 23 23 24 23 17 20 24 19 17 21 24 19 23 13 18 17 24 13 13 15 14 20 24 23 18 20 24 20 18 19 20 23 21
38 38 28 17 19 20 20 16 18 18 18 14 14 13 14 9 13 13 22 21 22 15 18 28 25 19 15 25 24 29 32 21 24 29 19 23 21 20 23 21 27 29 27 19 25 17 17 21 23 20 20 15 26 23 19 21 24 25 21 22 15 22 20 19 20 20 19 18 23 17 18 18 10 15 22 15 22 22 19 22 17 18 19 17 20 22 21 22
42 34 22 20 20 23 20 20 15 11 14 16 15 15 11 17 16 22 20 18 17 21 17 23 22 20 22 23 21 27 25 26 17 19 20 20 19 23 22 21 23 22 18 16 13 20 20 27 23 18 18 15 20 24 26 24 23 22 23 17 20 22 15 27 20 20 24 24 20 17 22 11 18 18 21 20 15 18 17 19 21 19 19 19 20 20 20 19
28 21 24 21 16 10 16 14 10 8 12 15 14 14 19 16 16 14 18 14 20 19 22 22 19 24 27 22 19 26 16 20 14 22 23 20 22 28 15 11 15 16 17 16 11 17 15 24 12 20 24 23 22 21 25 17 18 13 16 20 17 13 22 16 15 19 20 23 28 17 25 26 21 21 14 14 16 18 17 16 19 20 19 18 17 17 16 17
24 25 20 16 16 8 8 9 10 11 13 15 15 17 20 23 20 24 17 18 18 18 15 20 20 21 20 22 24 18 22 23 20 24 26 17 26 29 34 14 9 11 11 13 14 15 19 22 19 21 22 25 24 21 24 22 19 24 25 19 21 22 25 23 22 15 18 23 23 17 22 22 16 18 13 13 16 15 14 16 17 16 18 17 15 15 15 14
27 21 21 21 16 10 9 10 10 12 16 16 16 10 19 26 22 23 22 17 16 15 21 18 25 16 23 26 23 19 20 18 19 20 16 15 27 18 21 15 16 12 10 9 17 16 18 29 22 24 26 26 24 23 27 25 23 29 27 19 27 20 26 15 16 19 17 22 23 21 22 26 22 15 14 16 15 13 13 12 15 16 15 13 13 13 13 14
21 20 21 13 9 11 11 10 12 15 15 19 20 17 21 28 22 25 17 13 12 16 19 17 21 19 23 22 23 24 26 24 19 20 19 12 24 13 19 19 13 17 14 15 18 17 19 27 27 19 21 19 23 25 25 21 26 27 24 32 23 23 22 24 27 21 25 21 17 22 20 23 15 16 23 20 16 17 14 12 12 13 13 13 13 13 14 14
19 19 7 8 12 12 10 9 14 15 18 19 18 24 18 25 23 18 20 17 13 14 14 17 14 20 19 19 18 24 23 23 20 21 19 16 27 16 17 14 24 14 13 12 19 16 21 14 27 17 18 24 31 24 21 15 21 25 28 31 30 29 17 22 19 25 22 22 21 19 21 22 15 15 25 21 20 19 20 18 14 13 12 12 13 12 12 13
17 16 16 10 14 14 12 14 16 18 21 22 22 25 25 25 18 23 20 8 11 11 20 19 19 20 17 21 18 16 19 18 21 22 19 20 22 27 13 20 15 15 11 12 15 19 22 23 24 22 23 28 26 22 21 24 27 28 26 23 17 16 23 21 27 18 24 25 26 19 28 23 20 17 23 24 15 16 13 18 15 20 17 15 14 10 10 10
16 17 14 10 16 12 12 15 21 19 24 21 22 23 22 14 20 21 22 19 16 20 13 19 15 17 19 20 19 20 25 22 20 20 17 20 14 22 14 16 10 10 15 18 19 17 12 15 22 21 24 24 23 25 25 25 27 30 29 22 17 17 17 19 24 18 21 31 29 27 21 18 20 14 18 18 21 25 28 23 18 12 12 16 15 12 8 8
16 20 22 23 16 12 12 17 19 21 22 24 20 24 25 24 16 18 21 16 19 17 19 15 14 14 12 17 16 20 19 30 21 23 21 20 25 18 22 13 17 17 11 20 21 17 15 18 23 26 26 28 31 29 32 32 30 29 24 24 24 25 21 24 25 21 25 18 19 17 22 19 12 19 19 20 19 18 18 17 17 20 15 13 15 12 10 7
21 24 21 15 11 9 14 12 13 14 21 22 23 25 21 25 20 21 21 18 22 17 18 19 15 14 19 13 17 19 13 21 12 20 25 20 33 15 18 24 25 17 13 16 16 18 19 12 23 26 32 29 25 24 29 26 32 29 27 22 21 25 24 25 24 12 17 19 21 21 28 20 16 19 17 19 24 22 22 23 18 21 21 12 11 12 9 11
26 22 23 20 14 13 15 14 18 17 19 21 25 22 24 22 16 22 22 19 17 19 17 19 18 17 23 16 21 18 16 18 32 22 26 23 31 22 18 28 21 18 16 16 13 16 14 18 19 23 24 28 37 25 19 11 17 24 21 23 23 20 20 21 13 15 19 16 21 25 27 21 14 15 16 16 17 14 13 19 20 20 18 18 11 9 9 13
17 15 17 16 19 14 19 15 17 17 19 16 16 20 20 26 21 20 19 21 16 19 22 23 20 20 22 19 20 18 20 18 23 26 22 24 28 31 25 28 20 15 26 19 11 11 15 16 21 24 25 25 23 23 15 21 21 22 21 22 25 18 18 15 13 15 21 17 21 22 26 24 22 18 18 19 18 16 15 14 14 18 17 12 10 7 6 13
19 16 19 18 25 16 17 18 22 23 15 18 15 16 18 19 23 25 18 20 15 21 19 14 19 20 17 17 18 21 19 23 23 28 28 26 27 35 27 31 28 23 28 19 21 12 15 23 21 23 27 29 28 29 30 21 26 26 22 23 21 21 20 19 16 23 15 19 26 24 18 21 21 20 20 20 21 21 20 19 21 21 21 18 19 17 15 15
15 16 18 17 13 21 22 16 26 23 22 19 20 20 19 20 21 23 20 19 19 17 22 14 22 19 21 21 21 27 19 25 27 28 25 27 29 26 34 26 30 26 23 22 19 16 18 21 20 23 27 28 26 26 24 27 22 25 25 24 25 22 22 23 22 23 20 22 26 21 20 23 23 25 24 24 24 24 25 24 21 21 24 23 22 22 19 22
19 21 14 24 17 16 22 25 25 22 23 21 25 18 21 20 22 21 20 21 21 22 22 17 18 22 22 22 23 26 23 26 22 25 28 23 22 26 29 26 26 21 23 21 19 18 22 24 20 24 28 26 25 25 22 23 26 27 27 27 26 24 21 21 24 25 26 25 28 32 31 32 32 31 29 25 22 24 27 20 19 25 25 15 18 16 18 21
18 18 19 23 18 21 19 19 19 18 19 16 16 16 21 18 19 19 18 19 20 20 20 28 24 27 24 28 30 35 20 22 22 21 21 23 24 22 22 23 25 24 22 21 21 11 21 20 14 20 26 30 26 26 25 24 23 30 28 29 29 27 25 23 25 22 21 25 28 30 31 36 29 23 27 24 22 25 25 23 24 24 22 18 15 14 15 17
15 14 15 20 22 16 18 17 17 18 18 16 18 18 20 20 19 20 22 20 23 24 19 25 29 25 20 22 22 22 21 19 22 23 21 21 22 24 27 19 25 25 26 24 13 15 15 16 15 21 23 29 25 22 22 24 25 30 33 33 31 26 26 28 31 22 23 27 25 25 31 37 26 19 21 22 22 24 23 23 17 18 16 13 13 14 14 16
19 18 17 19 22 16 22 18 20 19 19 18 16 15 22 19 23 26 30 19 19 19 16 21 22 23 19 18 20 17 20 21 23 25 25 24 24 26 25 26 24 24 22 24 16 24 15 17 17 20 27 30 26 23 24 25 27 34 38 28 26 26 27 29 29 26 27 20 22 21 30 26 23 19 22 24 24 24 23 23 20 17 15 17 17 16 17 16
Wind_Speed
20 20 20 20 19 20 19 20 19 19 19 19 19 18 18 17 17 17 16 15 15 15 15 16 15 14 13 12 11 9 8 3 3 1 2 13 11 12 10 9 6 11 10 3 0 1 4 3 5 3 3 1 4 3 6 5 3 3 4 4 7 7 6 5 5 3 2 0 4 3 1 4 3 2 3 5 5 3 5 5 2 6 7 3 2 6 12 14
20 20 19 20 20 19 20 19 19 19 19 20 19 19 19 18 18 17 17 16 15 15 15 14 14 13 12 10 10 7 5 1 3 5 14 12 9 13 12 12 8 9 9 2 5 4 3 4 6 2 2 2 1 5 0 2 3 5 2 3 8 3 7 4 5 4 1 2 1 2 3 1 3 3 1 2 4 4 5 2 3 4 5 7 6 11 14 14
21 20 20 20 20 20 20 20 20 19 19 19 19 19 19 19 19 18 18 17 15 14 14 14 13 12 11 9 7 5 3 2 2 6 12 12 18 12 13 13 7 12 12 5 5 5 7 5 1 3 2 3 3 7 0 5 1 5 4 4 7 6 5 7 8 7 4 3 2 2 1 3 6 1 1 3 7 7 8 5 0 2 2 4 7 10 12 14
19 19 20 20 20 20 20 20 20 20 19 19 19 19 19 19 18 18 18 17 16 15 14 14 13 11 9 7 4 1 1 1 1 4 5 3 10 16 14 10 10 15 6 2 3 4 2 2 2 1 3 4 6 5 4 5 1 3 2 4 5 4 3 7 7 7 3 2 0 2 2 4 6 3 1 2 8 4 5 10 13 10 10 8 10 11 12 12
20 20 20 20 21 21 21 20 20 21 20 20 19 19 19 18 18 18 17 16 16 15 14 14 12 10 7 5 5 1 1 3 2 2 4 4 9 13 15 11 12 9 8 2 1 3 2 3 2 1 3 5 3 2 6 6 5 1 6 9 8 2 2 13 4 7 2 5 0 3 4 4 3 5 3 4 5 6 10 11 9 13 14 14 13 13 11 12
20 20 20 21 21 21 22 22 21 21 21 20 19 19 19 18 18 18 17 17 16 15 14 14 11 9 5 2 0 0 1 1 1 3 4 1 10 12 14 12 12 7 4 3 1 1 2 2 1 1 1 2 4 3 7 5 7 7 6 6 7 6 6 5 1 3 4 3 4 2 3 2 2 3 3 3 4 6 11 13 10 16 18 18 15 14 12 12
21 21 21 21 21 22 22 23 22 21 20 20 19 18 17 17 18 18 18 17 16 15 14 13 9 6 3 2 1 0 2 7 3 7 7 5 8 13 12 9 8 6 4 2 2 1 0 2 0 4 3 5 7 4 8 2 8 10 5 3 8 7 9 7 5 6 5 5 4 3 1 4 3 6 2 5 5 4 7 12 16 17 13 12 13 14 16 17
22 22 22 22 22 22 23 23 23 23 21 20 19 18 18 18 18 19 19 17 15 14 14 12 8 6 1 1 0 1 1 8 14 2 8 9 6 8 11 4 6 5 5 7 4 3 1 3 6 2 5 5 3 1 6 7 3 1 3 4 6 6 6 7 6 6 5 5 7 5 3 9 7 6 0 4 10 4 8 13 12 11 12 12 13 15 14 14
22 23 23 23 23 22 24 24 24 25 23 21 20 20 19 19 18 18 18 17 15 14 13 10 6 2 2 1 1 4 8 8 4 7 11 9 8 8 10 4 4 7 4 3 4 3 1 4 4 4 4 5 1 5 3 4 4 3 5 4 5 7 8 9 7 7 7 4 4 6 10 10 14 4 3 10 11 8 10 12 13 13 13 15 15 16 16 16
23 23 23 23 23 23 24 24 25 25 24 24 24 21 21 19 16 17 18 17 15 13 12 9 4 6 2 1 2 1 8 5 1 10 10 11 9 8 6 4 8 5 4 5 3 4 6 7 6 2 3 8 2 5 2 2 4 4 7 8 10 11 7 5 5 8 7 4 3 5 9 8 7 5 7 6 4 13 10 14 15 16 15 16 14 13 13 15
23 23 24 23 23 24 24 25 24 25 25 26 25 25 21 18 18 16 15 16 14 12 10 6 3 6 2 2 3 7 6 2 1 5 12 12 12 10 10 6 8 6 6 2 6 8 8 11 3 4 4 3 7 7 4 2 4 7 5 10 12 13 13 10 8 10 4 7 6 6 9 9 10 3 9 12 5 16 15 13 15 15 15 15 14 13 11 11
23 24 23 25 24 24 25 24 25 25 26 25 24 24 22 21 19 16 15 15 14 10 7 2 9 3 2 1 5 9 2 0 4 1 8 12 10 14 12 8 9 8 7 7 7 7 10 4 5 4 4 2 4 6 3 4 5 5 6 10 12 10 12 12 10 10 3 9 11 2 3 9 7 8 13 13 8 15 17 15 16 16 14 13 12 11 9 12
23 24 24 24 26 24 25 25 26 26 26 24 22 22 24 23 20 17 15 14 7 6 4 6 7 1 0 3 10 9 4 2 6 4 1 3 1 1 3 5 8 5 7 6 5 8 4 2 4 5 5 2 2 2 5 4 5 8 6 4 11 9 11 17 6 10 11 9 14 7 7 12 11 13 13 5 11 14 14 14 15 13 11 10 10 11 10 7
24 24 24 25 25 26 26 26 26 26 26 25 24 23 23 24 20 19 16 13 10 7 7 8 3 2 1 7 6 2 6 5 6 5 6 4 2 2 3 3 3 5 4 5 8 6 5 4 2 6 2 2 3 3 7 4 2 6 7 4 4 7 8 15 4 5 9 12 11 9 8 11 11 14 14 5 11 18 16 16 14 11 10 10 10 10 10 10
24 25 25 25 26 25 26 27 26 25 26 25 25 23 22 22 19 17 11 8 6 6 9 8 1 2 1 8 7 11 11 4 9 9 9 7 5 1 5 4 6 7 8 7 4 4 4 4 2 3 4 3 1 4 6 4 3 2 6 6 2 2 11 17 17 5 8 5 11 9 5 13 11 12 12 4 11 17 16 14 13 12 11 11 10 10 9 11
24 24 25 25 25 26 26 26 25 25 27 28 24 28 23 16 11 11 3 5 9 13 7 2 1 1 1 9 3 7 1 5 8 11 9 12 9 7 10 11 6 6 5 5 7 6 6 4 6 4 4 3 1 1 4 6 6 3 4 7 9 3 10 11 8 4 4 2 3 13 7 3 6 13 13 4 7 13 13 15 13 15 15 12 11 10 9 8
24 25 24 24 24 25 26 26 25 27 28 28 29 24 25 16 8 3 6 10 6 3 3 2 3 2 1 4 4 3 3 3 4 5 8 10 11 7 5 4 3 6 6 6 5 3 4 4 1 2 1 3 1 2 3 6 7 6 1 6 5 6 7 6 11 5 7 3 2 8 5 6 6 7 10 4 9 11 13 12 18 16 14 14 12 10 10 11
25 25 25 25 24 25 26 26 27 25 28 28 27 22 19 18 6 10 6 3 4 3 2 2 2 0 9 2 2 4 1 3 2 8 13 12 11 7 6 4 3 7 3 3 4 3 1 2 1 5 2 1 1 0 2 8 6 4 2 3 9 5 6 10 9 6 5 4 6 3 10 12 13 11 9 10 5 10 12 9 16 16 13 12 10 12 12 12
25 25 26 25 25 25 26 27 26 27 26 28 24 15 6 2 4 3 2 2 1 2 1 1 2 3 0 3 5 7 4 5 3 7 9 11 8 8 3 3 3 4 2 3 4 3 1 2 4 2 7 3 5 7 9 13 7 9 8 6 7 9 12 9 11 8 3 3 4 5 5 10 13 13 9 10 5 8 11 10 6 11 12 12 13 12 12 12
25 25 26 27 26 25 26 25 25 24 24 17 13 9 4 8 7 1 4 6 2 5 6 4 7 6 11 12 9 3 8 8 3 6 4 5 8 9 4 2 1 3 3 5 1 3 3 4 5 8 10 9 8 8 11 13 11 12 11 9 12 12 13 12 10 11 4 3 4 5 5 5 7 10 10 10 5 3 7 6 6 12 11 13 13 14 15 14
25 26 27 27 27 27 24 25 21 24 22 6 7 6 7 6 5 5 12 12 10 7 10 13 13 13 12 4 5 6 7 8 3 3 4 3 4 6 2 2 1 3 3 5 6 1 3 6 9 12 13 10 12 11 10 10 10 11 10 9 12 9 12 11 10 8 8 2 6 9 6 9 10 7 6 5 5 9 10 8 10 13 15 15 17 16 15 16
25 26 27 27 27 26 26 23 24 22 16 3 5 7 1 5 2 4 1 10 9 10 13 15 9 13 10 12 12 4 4 4 14 9 3 7 4 9 2 5 4 8 1 1 1 1 3 9 10 11 13 10 10 9 10 11 13 10 9 10 9 12 9 13 10 7 5 3 8 9 8 11 9 7 7 7 9 7 8 9 8 16 16 14 14 15 14 10
25 26 25 28 27 27 28 24 25 15 5 6 7 7 5 6 5 3 2 6 12 6 8 7 9 14 13 8 8 5 6 7 9 8 3 5 4 9 5 5 5 5 3 3 6 5 7 8 13 12 9 8 12 11 11 12 10 9 10 7 11 12 8 8 9 9 4 1 5 9 6 8 7 6 8 9 3 6 9 8 6 15 16 16 15 15 15 14
25 26 26 27 28 28 29 26 22 6 7 5 1 9 6 6 5 7 4 3 5 12 6 5 8 3 7 4 4 13 9 3 5 10 3 6 9 4 4 7 7 3 7 6 8 9 11 14 7 5 7 10 13 15 12 8 10 10 10 11 12 12 8 8 6 4 6 5 2 2 4 7 5 5 7 8 6 4 9 11 7 3 14 19 18 16 16 17
26 26 25 25 26 30 30 22 5 6 7 5 1 8 7 8 6 7 3 4 1 8 4 1 5 4 6 2 4 6 4 1 7 4 5 9 4 3 4 2 3 6 7 6 5 6 10 14 10 10 11 10 10 13 14 9 8 11 13 15 16 12 11 7 7 3 5 7 6 2 4 3 6 6 6 7 9 12 10 13 12 6 3 2 9 14 11 13
27 27 25 23 24 26 28 3 4 9 9 2 3 11 8 8 4 5 2 2 4 6 2 3 1 1 0 1 3 3 5 3 7 7 6 8 9 7 1 2 3 7 7 4 7 5 8 11 10 11 10 9 9 9 9 7 10 6 7 11 16 11 7 5 9 3 2 4 6 0 1 5 6 7 5 4 9 9 9 10 8 8 5 6 12 9 9 12
25 27 25 23 23 22 9 2 3 9 3 4 9 11 8 8 5 2 2 3 3 1 1 2 1 0 2 2 3 3 1 2 4 2 5 5 5 3 5 6 1 1 3 1 0 5 1 4 4 4 5 7 5 6 4 4 4 5 8 5 4 5 5 6 5 4 5 2 5 4 2 2 3 6 2 3 11 8 12 12 13 12 8 5 1 11 10 13
25 25 25 24 22 15 4 2 7 3 2 6 9 10 10 7 4 2 2 2 1 3 1 2 1 1 1 1 4 3 4 2 3 3 4 7 6 1 6 5 7 7 4 2 7 7 3 6 5 7 8 7 7 6 8 4 2 4 4 3 4 2 4 3 1 4 4 1 7 7 3 2 1 4 4 4 6 7 8 8 9 10 10 7 4 6 17 16
26 25 23 21 23 14 4 2 0 3 4 7 9 10 8 5 1 2 2 1 3 1 4 0 2 2 3 4 2 2 2 1 2 3 0 3 2 6 5 6 3 4 4 6 7 4 3 7 9 9 6 9 7 7 6 4 5 5 4 2 1 1 1 1 1 2 2 2 5 6 1 2 4 5 4 2 5 4 2 4 8 8 7 9 4 8 4 6
26 25 23 20 13 2 0 1 4 7 6 7 9 11 6 2 2 1 2 1 2 2 3 1 4 6 4 3 3 3 1 2 1 2 2 3 1 2 3 4 6 5 6 2 4 8 8 5 4 4 5 6 7 9 7 8 11 10 3 2 3 5 4 3 1 1 2 3 4 6 1 2 2 3 1 1 1 3 4 2 3 5 9 10 8 6 8 6
29 27 23 16 1 2 3 4 6 5 5 7 9 7 1 3 2 4 1 3 1 3 5 5 5 9 7 8 6 3 4 3 3 0 1 1 0 1 1 2 4 1 1 3 6 9 5 4 4 3 7 4 4 7 6 4 5 5 1 1 4 7 6 4 4 4 2 4 5 0 0 2 1 3 4 4 2 3 2 8 6 7 7 8 8 8 8 6
29 27 25 12 4 1 0 4 6 6 7 8 7 4 3 2 4 1 1 4 1 6 3 5 3 3 8 7 1 5 3 3 1 3 5 3 3 4 4 5 3 2 3 3 7 5 6 7 4 8 2 7 5 5 9 7 3 3 1 4 2 4 3 4 3 5 5 6 3 2 2 2 3 5 5 4 6 3 1 1 6 7 8 8 7 8 8 8
29 27 25 6 4 1 6 7 7 7 7 7 4 3 2 4 0 2 2 4 0 2 3 1 5 5 5 6 6 7 5 2 3 2 3 2 2 5 4 6 5 5 5 2 2 3 7 6 7 6 5 2 2 1 3 5 2 4 3 1 2 1 1 3 4 2 4 6 6 4 2 4 4 4 5 6 4 6 11 8 3 5 8 8 7 5 8 8
28 24 9 3 5 8 8 5 7 5 7 6 2 4 6 2 2 4 1 2 2 2 5 5 10 8 3 2 4 5 6 3 8 7 4 2 3 4 4 5 2 2 1 2 4 3 2 5 6 2 1 5 1 1 2 4 3 6 2 3 5 2 2 6 2 5 7 8 5 3 2 4 1 5 3 2 1 3 5 9 8 7 7 9 7 6 7 8
29 15 6 6 3 6 10 8 5 2 2 5 7 5 1 3 1 1 2 3 2 2 3 4 5 4 5 4 2 3 5 4 6 9 7 8 5 3 2 2 2 1 2 2 3 1 5 5 6 3 3 1 5 4 1 2 3 2 1 4 3 6 5 4 6 3 4 5 4 0 3 4 4 2 3 4 3 2 3 5 6 7 5 8 9 6 5 5
14 9 2 3 3 4 2 4 2 1 4 7 4 2 1 3 1 0 1 3 2 3 8 5 3 4 2 5 3 8 8 4 7 8 3 6 7 3 5 2 3 1 1 2 1 2 3 3 3 9 6 3 5 4 4 2 1 4 4 7 7 5 3 2 3 2 0 2 5 1 3 2 2 3 4 3 4 4 1 5 9 8 5 6 8 6 4 4
9 9 5 7 5 3 3 2 2 4 5 6 3 1 4 3 2 1 3 2 1 1 3 4 4 2 3 4 3 6 7 7 3 6 6 4 5 3 5 5 2 3 0 1 4 1 0 7 6 4 9 4 8 4 2 1 3 2 1 7 2 1 4 3 3 4 2 3 5 1 6 2 2 2 2 1 3 4 3 4 7 7 6 8 5 6 5 4
7 4 3 5 6 6 3 3 5 6 3 2 0 5 1 0 3 4 4 1 2 2 2 2 3 4 2 3 5 5 5 3 8 5 3 1 2 1 4 3 5 6 6 2 1 3 2 8 5 1 3 4 10 10 13 5 3 2 3 4 2 4 9 1 3 4 4 5 4 3 5 5 8 5 5 8 8 8 7 5 6 7 6 8 6 4 4 4
2 1 1 1 4 3 3 4 5 4 3 3 1 1 2 3 3 3 6 3 1 0 2 2 2 1 1 4 2 3 2 2 2 2 4 2 2 4 4 3 5 11 10 6 5 4 3 2 6 3 3 3 4 3 6 6 13 7 2 5 1 4 4 3 6 4 6 7 2 7 1 6 5 6 13 13 10 11 9 5 6 8 8 7 6 6 6 5
6 4 1 1 4 8 5 4 3 4 3 0 2 2 2 3 4 7 5 5 2 2 1 1 1 1 1 5 1 3 2 1 0 3 2 3 3 6 5 5 4 4 8 6 2 2 3 1 6 4 7 5 5 2 1 3 4 6 8 7 5 1 4 4 1 2 3 3 4 3 4 4 6 7 15 14 13 12 13 11 8 7 5 5 6 7 5 5
2 1 5 4 8 8 5 6 3 2 1 2 1 2 3 2 4 7 10 5 1 4 2 1 1 1 2 2 6 1 1 1 1 1 2 3 1 2 3 8 8 5 2 4 4 3 1 1 5 6 6 2 5 4 2 6 4 4 2 5 5 4 5 4 8 2 1 1 4 4 10 7 9 3 2 4 5 3 1 5 8 6 5 5 5 6 6 6
3 3 2 5 10 6 5 4 1 1 1 0 2 2 4 5 4 6 7 6 3 2 1 0 0 0 2 2 2 1 1 2 1 1 2 1 3 1 3 11 6 6 4 4 1 2 1 1 1 8 5 7 6 7 7 7 6 8 4 3 0 0 1 1 3 6 4 5 3 1 1 4 3 8 7 10 13 14 17 16 10 4 0 1 1 2 1 3
4 4 7 10 7 3 4 1 2 3 2 3 8 6 5 3 1 4 5 7 5 4 2 1 1 2 2 1 2 3 2 2 3 4 3 3 3 2 5 9 9 11 3 2 3 1 1 2 4 9 5 4 4 5 4 3 4 8 2 2 3 2 0 1 3 5 4 5 4 2 1 5 3 6 10 12 12 11 9 9 10 11 8 2 3 1 1 5
2 4 7 7 5 3 5 3 5 6 3 8 6 5 7 3 4 7 4 6 3 4 4 2 3 1 2 1 0 2 1 3 4 2 4 1 3 6 8 18 18 6 5 1 2 1 4 3 1 7 9 8 3 3 2 6 4 1 2 2 1 1 1 1 1 1 1 4 5 4 9 5 1 2 8 8 9 9 5 7 8 10 8 3 1 1 1 6
4 3 5 8 6 6 5 2 3 2 5 5 5 9 9 3 3 3 3 5 3 3 4 4 2 2 3 1 1 1 1 2 3 4 3 2 5 10 13 20 12 9 9 5 4 2 3 5 4 6 7 11 14 9 6 4 5 5 3 2 2 3 3 5 3 3 1 3 4 2 4 8 6 3 5 8 7 5 3 5 8 11 10 11 3 1 3 7
4 3 6 6 6 6 4 2 6 3 4 7 8 5 4 5 5 5 5 4 1 4 1 4 5 6 7 10 6 5 5 5 4 3 5 5 6 5 10 15 12 9 18 17 7 1 2 1 4 7 7 11 11 9 5 0 1 5 8 9 15 2 3 2 2 2 5 4 7 5 4 8 9 3 3 5 10 4 4 6 7 3 10 8 4 2 2 8
1 2 3 6 6 4 3 2 6 5 4 4 2 3 5 5 6 5 3 2 4 6 4 4 7 7 5 5 3 3 2 6 6 3 4 4 4 4 12 5 11 10 20 10 15 3 2 3 4 5 10 12 8 8 6 5 8 9 9 12 10 10 3 4 5 8 5 1 10 4 3 2 6 1 2 1 2 3 4 7 7 9 11 7 5 2 6 7
2 1 2 1 0 4 7 5 9 6 4 3 2 2 3 5 4 4 6 2 4 5 4 3 12 7 3 2 2 2 4 3 2 4 8 3 9 11 10 9 6 10 13 7 10 2 0 3 4 1 6 8 8 9 9 6 5 7 10 10 11 10 5 5 5 8 5 6 10 6 3 7 13 7 8 2 6 9 9 7 7 8 6 4 4 6 7 7
2 1 0 3 1 1 1 7 6 4 8 4 2 1 2 4 6 3 3 4 3 4 7 2 7 9 7 6 3 0 2 3 4 2 2 5 4 7 6 10 4 8 9 9 7 4 3 4 4 2 4 5 6 6 7 7 5 8 10 12 10 6 4 5 8 8 7 6 6 8 6 10 12 12 5 11 9 11 9 5 4 8 8 7 9 9 8 9
2 1 3 4 1 3 3 3 3 4 5 4 1 2 4 6 8 10 7 2 3 3 3 3 3 4 4 6 5 1 1 1 2 3 2 4 7 1 4 4 4 6 8 9 6 5 1 6 8 5 5 4 4 6 7 6 7 11 14 14 13 4 3 6 4 5 5 6 8 8 9 14 9 7 3 7 12 6 3 9 8 14 12 9 6 6 9 10
1 0 0 1 4 4 1 1 3 3 3 5 3 4 4 5 6 9 5 2 3 1 2 4 3 3 0 3 3 3 3 2 4 5 4 1 4 1 1 4 4 12 7 4 2 4 4 5 5 2 6 11 4 2 7 10 12 15 19 20 12 8 9 7 6 5 4 6 7 7 8 8 5 4 7 10 7 8 7 12 11 11 6 5 7 7 8 8
1 2 1 1 1 1 2 3 3 1 0 1 3 3 3 5 6 6 4 2 3 2 0 1 2 1 3 5 7 5 6 6 6 6 5 6 6 6 8 9 6 7 6 7 3 6 2 3 3 1 6 9 12 1 4 8 11 15 22 13 9 11 10 7 7 5 8 7 7 7 9 6 7 4 6 8 7 9 13 15 13 11 9 12 10 10 9 8
Wind_Direction
355 353 352 349 346 344 341 341 338 335 333 331 328 327 326 323 323 322 322 320 317 315 311 312 310 310 313 312 310 315 333 342 323 241 195 243 207 213 202 222 178 199 143 131 38 323 304 311 301 336 319 17 261 205 224 185 186 126 194 195 266 236 288 241 227 199 222 104 301 356 258 62 353 237 233 69 13 77 62 61 359 27 24 12 343 133 136 132
354 352 349 346 344 342 340 338 335 335 334 328 328 327 324 323 322 322 324 320 318 315 313 311 313 312 314 309 308 317 330 282 288 261 237 238 182 213 216 230 233 173 136 181 216 204 222 286 264 272 299 293 264 251 158 273 148 194 213 152 239 193 234 202 254 287 250 334 247 291 6 26 254 158 274 82 191 129 78 11 30 54 17 57 84 115 128 137
353 349 347 344 343 342 340 336 334 334 330 329 328 324 322 323 324 321 321 320 319 318 314 314 315 315 309 307 306 327 329 299 261 261 262 242 227 207 217 231 222 155 168 180 207 195 191 213 225 348 258 267 207 260 284 266 316 228 182 229 245 211 247 262 279 269 232 205 336 323 271 344 278 116 234 180 173 138 148 139 348 127 154 133 123 128 137 147
350 347 344 342 340 340 336 334 333 330 328 327 323 321 321 322 320 320 318 318 319 319 317 317 317 316 309 301 305 2 346 292 330 252 260 323 198 205 213 215 172 173 178 221 182 186 218 265 311 17 312 278 279 246 261 253 180 272 125 210 234 217 248 264 203 255 273 84 118 284 289 331 287 252 206 158 115 228 207 185 163 192 173 164 156 149 151 154
348 345 343 340 338 335 333 332 330 329 328 323 322 321 319 319 318 318 320 318 318 320 317 317 320 315 306 280 296 180 356 42 255 229 249 281 182 187 197 187 168 170 176 179 24 285 267 257 272 175 189 273 243 199 238 243 194 264 221 221 223 249 248 266 241 262 303 207 157 311 322 264 304 334 249 196 234 225 199 221 194 160 165 161 164 169 164 162
346 343 341 340 336 334 332 330 330 329 324 320 320 319 319 319 318 318 317 316 317 318 316 318 318 317 289 304 285 190 19 51 264 267 80 350 169 169 175 173 167 150 159 251 226 357 2 335 96 270 271 227 250 246 262 227 188 228 272 273 255 242 242 271 295 232 242 287 314 294 243 240 232 272 273 239 219 238 204 182 164 162 173 176 160 158 169 168
344 341 340 338 336 333 330 330 327 324 321 319 318 315 315 316 317 317 315 315 313 314 314 317 317 303 309 204 242 227 170 261 311 246 88 121 179 161 159 145 140 131 149 184 252 200 179 293 212 256 272 275 280 227 258 292 205 199 236 266 266 247 246 260 272 279 307 314 264 217 290 288 287 292 240 243 238 225 185 154 167 174 166 141 155 174 173 178
342 340 339 336 336 333 330 329 326 323 321 319 314 313 317 320 317 314 313 312 313 310 312 311 309 299 237 245 93 338 59 253 243 176 129 115 116 127 120 109 140 135 157 203 172 192 47 276 265 253 255 246 246 255 301 351 35 113 281 290 283 298 284 292 277 293 283 261 249 296 296 253 231 221 247 253 256 157 176 156 153 147 149 168 166 175 179 181
342 339 338 337 335 332 330 328 325 323 322 318 315 318 318 317 314 310 309 308 308 308 304 305 305 67 50 299 125 355 270 230 242 161 134 131 130 127 137 149 169 162 185 187 201 173 108 264 246 204 252 323 311 333 333 29 326 322 280 272 292 285 279 281 283 251 240 240 228 268 266 267 262 268 261 250 255 166 153 149 150 151 165 175 182 179 182 185
341 339 337 336 334 332 329 327 324 322 321 318 321 317 316 313 309 310 308 304 306 306 301 294 246 158 138 173 69 293 261 237 24 151 150 133 132 133 171 158 159 177 173 215 169 180 188 229 195 247 347 291 302 306 316 89 264 271 297 311 307 288 280 264 283 293 295 264 220 235 260 270 269 137 271 276 220 160 136 153 165 164 175 183 185 185 188 186
341 338 336 333 333 331 329 325 322 321 320 321 319 315 312 308 304 302 300 297 298 300 295 285 175 161 203 228 142 231 252 28 133 157 152 141 137 153 192 175 172 177 202 227 209 201 221 234 261 342 289 235 330 301 331 219 281 303 310 317 313 316 315 305 302 288 297 295 266 209 254 256 269 165 238 246 155 159 152 157 175 179 177 184 186 184 188 195
339 338 334 333 332 330 328 324 323 322 319 318 314 312 310 309 303 302 296 292 295 291 285 173 160 176 306 196 189 226 266 86 98 176 150 143 165 188 187 171 172 189 173 210 235 231 226 244 5 292 271 329 307 305 289 302 328 303 339 326 309 321 313 297 283 282 248 264 261 192 286 281 265 233 232 227 139 160 155 170 185 188 184 183 184 182 187 199
338 336 335 333 330 329 327 326 324 322 320 316 311 308 307 304 306 304 296 291 271 254 194 166 149 240 128 297 228 236 262 84 123 129 163 203 24 330 165 156 182 193 197 197 236 243 242 247 242 283 273 276 272 297 288 336 316 333 330 315 319 324 306 281 285 259 251 236 246 117 266 259 256 246 254 231 132 154 160 181 189 190 183 183 181 187 195 200
339 337 335 332 329 328 328 326 325 322 319 317 312 308 304 301 306 301 290 273 266 247 219 152 156 164 138 243 272 215 201 199 141 150 203 184 138 232 179 222 205 216 223 223 256 267 280 249 233 250 232 214 279 283 342 342 7 313 299 323 277 335 275 286 253 255 246 236 214 145 218 258 254 263 263 235 147 155 179 192 189 187 184 185 185 189 194 204
339 337 335 331 330 327 327 326 323 321 321 317 313 306 303 303 303 299 290 263 251 184 137 122 173 110 76 264 268 267 244 141 182 194 183 169 185 114 220 212 226 222 222 220 241 271 256 286 295 283 282 267 335 9 323 341 341 306 353 298 317 229 285 296 304 281 237 293 160 155 230 241 246 256 261 228 176 168 181 188 186 188 190 187 185 193 193 205
337 336 334 332 328 329 325 325 324 323 322 318 314 310 303 302 301 307 249 121 109 133 145 102 187 182 336 292 258 313 78 150 225 191 191 176 181 189 201 193 210 236 235 257 237 261 273 272 273 217 265 355 34 343 323 357 332 334 196 284 282 255 272 323 304 303 302 59 148 164 221 301 288 256 265 212 188 194 178 183 187 190 193 185 188 189 196 200
337 335 332 329 330 325 328 324 325 325 322 317 317 309 310 310 329 50 104 142 118 141 186 103 124 179 155 228 305 320 261 241 156 168 181 200 180 206 172 161 223 239 235 262 271 292 269 262 305 335 351 241 201 51 355 318 295 290 240 240 253 264 290 292 299 309 352 98 188 219 230 239 244 282 266 263 207 200 201 168 190 191 192 188 185 185 190 195
337 334 332 330 327 327 324 326 325 322 323 318 315 308 300 309 122 114 71 99 134 169 207 232 192 49 273 347 287 231 234 272 189 172 185 193 192 206 163 176 204 215 230 306 307 259 291 274 331 236 324 354 16 148 157 256 222 244 303 282 294 276 246 252 295 280 331 340 315 199 222 246 261 266 266 265 213 195 211 187 182 193 192 183 181 189 189 194
336 334 331 330 327 327 324 325 325 324 324 318 309 308 248 155 149 270 162 136 52 8 17 224 122 137 160 270 272 313 304 256 239 144 181 180 206 211 218 137 153 158 218 173 289 208 317 258 18 343 267 244 225 184 204 239 249 260 266 266 273 293 293 287 275 264 269 326 284 252 217 243 252 260 279 291 222 198 213 218 171 191 186 178 184 189 188 199
336 334 331 329 329 325 326 324 323 322 329 333 347 353 12 16 5 333 321 345 182 210 249 229 219 271 301 282 271 284 321 329 175 217 170 162 152 197 214 155 180 153 172 188 261 238 138 199 211 232 240 235 237 215 223 243 254 268 281 279 273 278 282 279 274 278 298 331 251 234 236 254 259 250 252 260 275 239 243 223 176 177 185 186 186 190 190 198
335 334 332 329 328 327 324 326 320 321 327 318 308 15 51 350 354 329 330 288 259 248 241 248 223 227 230 302 310 6 7 316 334 329 237 146 132 119 235 154 176 252 232 190 184 264 146 219 227 231 242 231 237 236 239 254 256 252 265 269 275 272 275 276 271 291 309 103 283 289 298 283 279 288 270 239 248 249 247 237 164 182 187 189 189 188 189 202
335 334 331 330 327 326 326 325 323 321 315 204 2 42 76 4 209 245 44 312 299 237 241 245 249 259 254 258 266 293 298 282 306 297 280 140 160 160 257 178 177 229 239 146 295 310 235 235 234 231 241 245 251 247 242 243 255 258 246 264 275 267 252 270 278 291 300 22 277 288 282 276 274 274 291 293 277 257 243 224 186 178 187 192 190 184 191 196
333 334 332 329 330 325 327 322 322 316 347 18 23 18 18 328 346 349 323 260 271 263 244 233 238 246 262 261 252 195 217 222 246 279 228 151 132 192 157 174 202 221 224 156 192 219 263 267 253 235 239 247 258 253 248 250 256 259 264 257 252 256 272 293 287 294 303 155 276 289 300 287 288 297 294 288 265 263 267 258 215 177 182 184 183 187 188 191
334 336 332 331 329 328 322 324 310 319 1 337 266 27 318 355 1 7 21 265 306 314 210 222 194 208 239 218 215 166 191 220 180 246 232 144 160 177 139 180 201 201 229 207 200 203 223 245 237 242 233 226 245 253 251 249 262 251 246 252 256 260 240 216 258 307 343 312 266 344 5 321 327 347 325 305 316 315 345 340 1 157 187 184 187 186 182 182
333 333 332 331 331 328 320 319 39 340 302 280 108 2 349 345 357 354 346 321 338 268 227 239 182 219 236 227 119 142 199 290 214 211 189 159 147 97 215 178 137 224 224 223 226 239 258 260 265 262 258 240 233 254 254 244 259 273 257 242 239 231 243 259 261 339 13 322 297 68 357 299 283 292 275 328 1 21 356 13 1 28 123 174 186 186 185 190
333 329 333 332 332 333 317 8 355 331 331 71 349 337 331 337 351 347 92 54 328 274 294 346 151 296 187 245 125 192 93 228 218 209 164 185 162 167 65 233 162 235 224 212 216 214 232 249 245 248 257 262 251 241 245 205 237 253 262 232 231 221 233 263 296 18 306 273 280 114 209 268 317 323 348 358 45 16 4 14 352 351 353 151 170 175 186 192
332 329 330 333 334 341 4 347 319 304 18 322 341 324 320 321 329 28 45 359 11 313 303 230 90 292 83 219 162 64 41 275 291 166 165 143 179 145 155 222 308 274 192 189 36 280 290 276 287 258 237 249 248 263 257 210 217 255 255 334 331 330 324 300 290 268 233 264 301 338 206 215 314 297 347 331 62 17 8 358 352 348 348 19 201 168 180 189
329 328 329 330 332 337 190 322 343 8 233 267 309 311 305 320 341 65 78 61 307 291 345 322 179 302 297 224 136 143 198 223 14 302 166 186 149 358 197 199 193 202 228 169 237 249 236 288 274 288 295 292 267 245 266 268 218 219 272 286 313 301 276 256 280 266 233 316 295 317 351 350 266 263 321 11 62 22 24 357 347 341 336 346 47 202 181 181
327 326 328 330 329 323 147 173 268 252 251 294 305 301 310 322 70 94 111 109 250 0 224 22 315 6 309 22 306 270 311 260 190 252 104 132 168 142 213 226 189 226 226 172 225 282 266 228 254 257 254 266 258 262 262 242 291 269 246 267 161 210 242 244 266 294 318 30 288 276 290 259 289 283 329 342 79 72 23 360 351 338 339 350 27 89 77 142
327 325 326 333 332 38 82 247 226 244 272 293 297 299 318 68 39 36 21 252 323 321 324 276 35 309 6 7 311 316 287 295 220 337 4 154 245 104 225 186 206 223 257 275 223 229 246 266 265 256 237 238 258 262 252 259 256 266 323 341 349 351 349 349 83 123 40 285 248 245 320 131 270 269 255 91 178 186 149 32 358 355 11 7 18 51 99 93
327 326 323 337 355 270 323 316 269 235 277 307 309 307 69 34 108 94 91 232 309 282 354 13 345 352 358 355 315 314 294 354 329 24 299 352 135 317 21 350 13 22 2 311 290 271 282 296 301 229 221 257 206 274 281 245 263 255 276 144 5 326 2 22 333 38 245 268 258 253 238 113 224 296 282 239 258 138 256 129 106 69 28 14 13 34 49 83
326 324 323 326 224 337 123 290 287 331 320 319 329 22 65 8 8 103 215 311 57 310 54 304 342 340 328 334 108 343 323 312 210 198 197 216 200 196 229 205 179 261 330 257 260 353 327 279 253 285 260 236 263 278 293 324 4 92 69 33 14 275 16 313 7 316 245 228 245 195 116 19 253 215 206 213 170 165 142 199 130 107 86 57 19 29 52 53
324 321 317 294 206 213 234 252 306 303 323 330 6 55 56 92 349 264 333 327 232 0 300 261 319 331 327 1 339 337 325 341 301 316 214 300 292 294 259 208 204 178 235 264 297 4 277 283 299 273 306 317 112 145 305 341 333 12 319 141 62 10 24 253 265 228 301 292 271 267 265 246 254 293 223 198 201 157 145 139 142 104 97 84 65 35 53 58
321 319 320 244 231 234 259 267 273 318 336 347 59 29 45 60 250 247 260 314 271 333 345 354 327 345 42 48 314 15 348 299 41 341 326 290 244 262 316 303 238 311 156 201 236 203 300 344 300 12 282 311 24 252 197 210 247 256 172 174 204 158 224 274 207 248 244 235 275 305 345 230 131 253 194 170 135 153 147 134 132 119 105 98 71 43 44 58
317 303 270 289 260 246 230 257 263 283 19 21 49 75 111 248 235 247 297 314 321 344 354 303 337 354 327 2 284 55 61 307 10 358 9 14 334 303 264 297 287 127 95 25 274 97 206 206 246 213 198 290 360 324 248 21 326 276 261 71 67 251 135 232 205 187 261 288 314 239 196 195 174 252 119 114 117 123 139 110 113 105 105 100 86 70 51 51
320 333 333 285 328 277 223 232 246 71 52 43 74 42 200 192 260 1 346 297 346 350 321 360 55 32 308 327 317 8 359 11 325 7 340 8 317 356 298 335 352 330 139 178 228 269 16 271 281 326 317 60 2 344 347 47 28 274 26 306 249 182 130 331 349 267 16 36 256 218 317 341 316 30 54 85 119 151 165 134 118 116 114 100 108 120 110 85
358 337 16 328 311 281 290 229 96 54 55 80 89 276 207 297 214 294 297 351 288 88 49 29 317 37 343 320 320 357 335 343 353 13 324 330 333 354 1 338 278 19 110 150 326 196 178 258 288 295 296 321 348 336 314 166 237 78 328 251 252 50 102 93 275 320 351 248 261 358 216 264 95 252 263 163 192 181 180 144 127 128 137 120 130 128 124 106
328 319 252 275 260 301 313 26 56 37 73 79 132 221 255 302 294 344 286 340 9 350 80 95 272 22 312 16 306 346 318 52 316 27 315 294 254 325 13 341 347 16 351 50 124 276 18 314 298 291 292 316 344 10 341 339 76 124 274 244 343 296 305 315 72 296 313 285 284 290 225 235 189 229 180 203 202 198 185 172 139 134 130 127 134 118 105 95
254 8 18 285 314 332 346 51 61 68 58 48 262 359 273 223 260 297 297 292 173 98 86 219 169 294 74 325 243 319 343 15 311 336 28 292 28 336 36 323 357 353 354 12 51 313 30 287 298 305 49 291 345 28 295 303 327 337 58 21 273 115 210 235 193 186 146 241 235 288 219 229 215 206 190 196 201 186 176 176 160 152 150 139 128 123 113 104
14 27 306 270 350 2 344 64 54 42 67 159 237 217 266 307 287 293 289 309 298 68 248 254 228 261 318 234 275 289 291 172 157 275 159 269 324 306 22 359 12 337 337 29 90 23 307 94 269 274 316 1 332 346 221 304 334 336 351 330 350 289 215 188 293 156 184 220 223 219 291 282 256 213 186 197 188 189 172 167 167 165 157 140 133 131 132 134
313 105 272 287 350 337 30 45 50 45 78 262 176 263 314 268 305 318 321 268 253 232 179 199 185 268 223 332 319 217 256 332 246 221 218 291 241 336 357 15 331 338 348 24 46 345 359 15 247 311 352 310 256 233 318 315 284 266 240 265 275 305 331 343 282 342 202 235 244 236 262 262 270 317 301 212 159 109 13 149 157 168 157 151 156 153 155 151
33 16 277 315 338 6 63 36 331 204 106 337 270 289 300 317 309 320 332 344 312 14 291 100 349 244 284 262 224 314 325 287 255 355 268 192 283 262 318 354 351 331 0 318 251 244 148 190 215 275 236 248 228 259 268 274 272 273 252 252 58 171 67 121 260 283 332 255 146 166 237 275 296 346 69 66 56 37 16 354 348 343 251 172 128 132 103 85
38 231 271 299 311 9 64 51 324 29 332 269 312 305 307 294 271 330 350 348 341 333 347 39 224 351 285 7 345 342 35 294 233 238 247 286 272 249 327 345 347 336 9 313 2 299 256 322 318 286 308 300 320 296 275 271 293 280 7 26 70 41 210 173 227 260 278 292 316 329 236 248 307 51 61 64 71 66 38 348 322 317 314 20 38 336 202 70
280 279 314 304 355 53 75 68 336 337 328 325 357 305 309 289 19 8 355 328 348 344 346 301 344 93 235 36 53 309 303 5 288 346 320 321 293 298 9 13 357 338 348 246 7 277 348 295 85 317 322 309 340 348 350 337 43 67 297 269 143 71 33 239 172 40 3 244 236 185 249 276 278 357 77 74 71 65 52 350 334 292 288 289 312 300 322 85
280 255 238 296 348 42 50 20 46 355 351 341 341 331 342 340 19 352 328 310 323 24 351 351 314 333 339 9 334 245 256 186 270 301 312 350 332 341 7 354 358 354 346 289 239 131 217 226 248 272 282 296 298 311 291 293 271 282 274 271 157 3 334 19 352 357 58 283 20 223 289 277 299 310 100 100 94 99 148 192 236 255 262 288 311 239 103 102
16 17 309 339 1 9 60 48 80 21 352 358 349 303 328 324 322 340 14 305 4 356 78 285 344 4 24 8 7 358 345 358 9 295 28 331 347 336 359 331 357 359 351 349 335 87 226 249 178 194 213 251 251 255 236 172 336 270 271 293 292 296 161 113 131 197 234 249 303 246 230 295 315 6 74 115 107 143 216 218 204 276 300 282 290 286 100 136
237 69 349 334 334 37 56 32 21 32 357 334 325 311 319 329 304 311 30 346 343 354 343 62 35 35 330 34 5 314 4 338 340 23 1 310 330 300 316 341 339 14 5 359 351 340 21 324 282 249 238 244 256 260 256 248 265 272 278 273 276 282 209 222 216 247 179 286 274 273 192 232 255 158 325 33 136 174 185 218 230 204 227 228 233 210 134 115
51 288 85 204 164 284 5 343 2 335 323 6 256 289 285 314 331 314 326 308 358 29 35 326 31 18 8 358 309 339 338 333 354 358 333 356 340 339 337 353 323 5 11 358 346 9 209 259 263 206 271 280 285 285 289 281 251 264 270 271 272 271 264 225 234 226 197 189 243 247 239 280 284 265 182 259 339 299 261 207 207 220 231 200 174 154 142 130
114 301 68 351 108 272 169 264 307 324 330 339 280 308 301 324 306 300 301 320 359 17 26 49 357 359 5 6 28 251 336 37 323 324 347 333 360 336 333 336 316 10 5 347 356 326 325 248 240 242 279 291 298 303 308 301 298 293 281 276 266 258 229 216 245 252 216 234 239 259 243 233 254 274 254 162 205 241 267 298 319 303 262 211 183 164 145 142
13 67 304 343 301 300 276 314 321 1 341 322 351 293 329 354 354 348 332 341 354 1 35 90 332 334 353 6 13 92 169 213 241 278 295 5 328 335 294 224 290 339 358 330 332 307 355 278 338 341 317 297 313 308 307 319 316 300 291 279 275 270 227 222 226 250 239 250 245 254 271 278 256 235 258 171 195 223 275 298 307 267 251 234 193 142 147 144
274 233 235 9 351 268 271 337 352 335 335 341 40 329 351 19 359 335 290 16 112 46 17 353 296 313 301 19 342 257 230 254 258 246 236 217 265 227 306 286 352 308 322 297 325 314 355 268 306 323 320 292 276 338 330 340 334 315 295 282 284 288 278 264 241 201 202 237 247 240 254 260 279 219 232 242 189 209 229 255 231 227 198 154 123 143 141 144
341 303 4 126 256 321 12 314 295 35 1 330 352 340 352 340 338 352 342 315 71 151 158 270 278 44 310 349 321 282 257 251 252 232 220 230 232 245 226 255 264 263 287 277 253 266 216 289 285 339 289 267 266 75 344 354 335 303 273 282 255 242 233 244 260 253 240 239 247 252 252 244 249 278 299 289 249 219 215 215 203 201 164 140 144 148 154 155